This is the latest recevied weather packets stored in our database for station/object W2SRH. If no packets are shown the sender has not sent any weather packets the latest 10 day(s).
| Time | Temp. | Humidity | Pressure | Rain* | Wind** | Luminosity | Snow |
|---|---|---|---|---|---|---|---|
| 1777635543 | 7.78° C | 75% | 1005.5 hPa | 0 mm | 1.34 m/s, 304° | - | - |
| 1777634944 | 7.78° C | 76% | 1005.4 hPa | 0 mm | 1.34 m/s, 328° | - | - |
| 1777634345 | 7.22° C | 77% | 1005.4 hPa | 0 mm | 1.34 m/s, 310° | - | - |
| 1777634026 | 6.67° C | 80% | 1005.3 hPa | 0 mm | 1.34 m/s, 307° | - | - |
| 1777633743 | 7.22° C | 78% | 1005.3 hPa | 0 mm | 1.34 m/s, 322° | - | - |
| 1777633143 | 6.67° C | 79% | 1005.3 hPa | 0 mm | 1.34 m/s, 324° | - | - |
| 1777632544 | 6.67° C | 80% | 1005.3 hPa | 0 mm | 1.34 m/s, 307° | - | - |
| 1777632110 | 6.11° C | 81% | 1005.1 hPa | 0 mm | 0 m/s | - | - |
| 1777631944 | 6.11° C | 81% | 1005.2 hPa | 0 mm | 0.89 m/s, 314° | - | - |
| 1777631344 | 6.11° C | 82% | 1005.3 hPa | 0 mm | 0.45 m/s, 327° | - | - |
| 1777630744 | 6.11° C | 81% | 1005.1 hPa | 0 mm | 0 m/s | - | - |
| 1777630180 | 6.67° C | 81% | 1004.7 hPa | 0 mm | 0.89 m/s, 316° | - | - |
| 1777630144 | 6.67° C | 81% | 1004.9 hPa | 0 mm | 0.89 m/s, 307° | - | - |
| 1777629544 | 6.67° C | 81% | 1004.9 hPa | 0 mm | 1.34 m/s, 303° | - | - |
| 1777628948 | 6.67° C | 81% | 1004.8 hPa | 0 mm | 1.34 m/s, 301° | - | - |
| 1777628346 | 6.67° C | 81% | 1004.7 hPa | 0 mm | 0.89 m/s, 316° | - | - |
| 1777627746 | 6.67° C | 81% | 1004.5 hPa | 0 mm | 0.89 m/s, 282° | - | - |
| 1777627145 | 7.22° C | 81% | 1004.5 hPa | 0 mm | 1.34 m/s, 299° | - | - |
| 1777626546 | 7.22° C | 82% | 1004.4 hPa | 0 mm | 1.34 m/s, 304° | - | - |
| 1777626342 | 7.22° C | 83% | 1004.4 hPa | 0 mm | 1.34 m/s, 302° | - | - |
| 1777625943 | 7.22° C | 83% | 1004.4 hPa | 0 mm | 1.34 m/s, 302° | - | - |
| 1777625796 | 7.22° C | 83% | 1004.3 hPa | 0 mm | 0.89 m/s, 304° | - | - |
| 1777625343 | 7.22° C | 84% | 1004.4 hPa | 0 mm | 1.79 m/s, 305° | - | - |
| 1777624745 | 7.22° C | 83% | 1004.3 hPa | 0 mm | 0.89 m/s, 304° | - | - |
| 1777624425 | 7.22° C | 83% | 1004.1 hPa | 0 mm | 0.89 m/s, 305° | - | - |
* Rain latest hour (hover to see other rain measurements)
** Current wind speed in m/s (hover to see current wind gust speed)